Вернуться в каталог

STARLINK-37924

АктивенСвязьSSO
NORAD 69569·PAYLOAD·🇺🇸 United States

Запущен Jun 15, 2026 с Vandenberg Space Force Base

Loading…

Ближайшие Пролёты (ближайшие 24 часа)

TLE

СвежийSource: CelesTrak SupGP

Эпоха: Sep 14, 2026, 23:17 UTC

1 69569C 26135Z   26257.97062500  .00051120  00000+0  15871-2 0  2572
2 69569  97.2842 285.8150 0001135  95.1742  59.3770 15.33409890    10

Отслеживайте STARLINK-37924 в реальном времени с AllMySat

Download on the App Store